This is the latest recevied weather packets stored in our database for station/object KN6ETB-1. If no packets are shown the sender has not sent any weather packets the latest 10 day(s).
| Time | Temp. | Humidity | Pressure | Rain* | Wind** | Luminosity | Snow |
|---|---|---|---|---|---|---|---|
| 1778091233 | 20° C | 72% | 1017.8 hPa | 0 mm | - | 808 W/m² | - |
| 1778090930 | 20° C | 72% | 1018.2 hPa | 0 mm | - | 678 W/m² | - |
| 1778090625 | 20° C | 72% | 1018 hPa | 0 mm | - | 586 W/m² | - |
| 1778090322 | 20° C | 73% | 1018.1 hPa | 0 mm | - | 424 W/m² | - |
| 1778090019 | 20° C | 72% | 1018.2 hPa | 0 mm | - | 605 W/m² | - |
| 1778089716 | 20° C | 72% | 1018.1 hPa | 0 mm | - | 583 W/m² | - |
| 1778089413 | 20° C | 71% | 1017.9 hPa | 0 mm | - | 506 W/m² | - |
| 1778089111 | 19.44° C | 73% | 1018.1 hPa | 0 mm | - | 484 W/m² | - |
| 1778088807 | 20° C | 72% | 1018.2 hPa | 0 mm | - | 514 W/m² | - |
| 1778088505 | 19.44° C | 74% | 1018 hPa | 0 mm | - | 533 W/m² | - |
| 1778088201 | 18.89° C | 74% | 1017.9 hPa | 0 mm | - | 527 W/m² | - |
| 1778087899 | 18.33° C | 75% | 1017.7 hPa | 0 mm | - | 520 W/m² | - |
| 1778087596 | 18.89° C | 75% | 1017.9 hPa | 0 mm | - | 510 W/m² | - |
| 1778087293 | 18.33° C | 74% | 1018.1 hPa | 0 mm | - | 443 W/m² | - |
| 1778086989 | 17.78° C | 76% | 1017.9 hPa | 0 mm | - | 399 W/m² | - |
| 1778086688 | 18.33° C | 75% | 1017.8 hPa | 0 mm | - | 364 W/m² | - |
| 1778086385 | 18.33° C | 75% | 1018 hPa | 0 mm | - | 352 W/m² | - |
| 1778086082 | 17.78° C | 75% | 1018 hPa | 0 mm | - | 341 W/m² | - |
| 1778085779 | 17.78° C | 76% | 1017.8 hPa | 0 mm | - | 340 W/m² | - |
| 1778085475 | 17.78° C | 76% | 1017.8 hPa | 0 mm | - | 341 W/m² | - |
| 1778085170 | 17.22° C | 78% | 1018.1 hPa | 0 mm | - | 333 W/m² | - |
| 1778084867 | 17.22° C | 77% | 1017.8 hPa | 0 mm | - | 288 W/m² | - |
| 1778084564 | 17.22° C | 78% | 1017.8 hPa | 0 mm | - | 265 W/m² | - |
| 1778084262 | 16.67° C | 80% | 1017.9 hPa | 0 mm | - | 255 W/m² | - |
| 1778083959 | 16.67° C | 79% | 1017.8 hPa | 0 mm | - | 223 W/m² | - |
* Rain latest hour (hover to see other rain measurements)
** Current wind speed in m/s (hover to see current wind gust speed)